{"data":{"norad_id":54790,"epoch":"2026-05-25T03:19:02.320320Z","epoch_age_seconds":62832,"freshness":"FRESH","line1":"1 54790U 22175AJ  26145.13822130 -.00000060  00000+0  14329-4 0  9999","line2":"2 54790  53.2129  45.7178 0001198  79.0430 281.0696 15.08837461191672","mean_motion":15.08837461,"eccentricity":0.0001198,"inclination_deg":53.2129,"raan_deg":45.7178,"arg_perigee_deg":79.043,"mean_anomaly_deg":281.0696,"bstar":1.4329e-5,"rev_number":19167,"period_min":95.437715275549,"perigee_km":538.92238668191,"apogee_km":540.57991268258,"semimajor_km":6917.8881496822,"source":"CELESTRAK","updated_at":"2026-05-25T13:38:17.694486Z"}}